{"data":{"norad_id":68220,"epoch":"2026-05-25T02:59:12.710688Z","epoch_age_seconds":60252,"freshness":"FRESH","line1":"1 68220U 26053P   26145.12445267  .00023080  00000+0  71485-3 0  9993","line2":"2 68220  97.2868  20.5990 0001283  99.1160 261.0228 15.33454332 11933","mean_motion":15.33454332,"eccentricity":0.0001283,"inclination_deg":97.2868,"raan_deg":20.599,"arg_perigee_deg":99.116,"mean_anomaly_deg":261.0228,"bstar":0.00071485,"rev_number":1193,"period_min":93.905633180604,"perigee_km":464.63736854847,"apogee_km":466.39344975666,"semimajor_km":6843.6524091526,"source":"CELESTRAK","updated_at":"2026-05-25T13:38:21.880177Z"}}